www.pogodaiklimat.ru

Погода и климат >> Архив погоды >> Пакистан >> Наровал


ПОГОДА в Наровале

  • Прогноз погоды в Наровале
  • Монитор погоды в Наровале

АРХИВ ПОГОДЫ в Наровале

Время (UTC), дата Ветер
(напр.,м/с)
 
Видим.   Явления Облачность Т
(С)
Тd
(С)
f
(%)
Тe
(С)
Тes
(С)
Комфортность P
(гПа)
Po
(гПа)
Тmin
(С)
Tmax
(С)
R
(мм)
R24
(мм)
S
(см)
06 10.07 Ю 2 4000 м дым 8/3 1200 м
[Sc Ac trans]
+32.0 +25.8 70 +47 +55 опасность
перегрева
997.8 971.9
09 10.07 З 2 4000 м дым 8/3 1200 м
[Sc Ac trans]
+34.0 +26.5 65 +51 +58 опасность
перегрева
996.6 970.9
12 10.07 В 1 4000 м дым 8/3 1200 м
[Sc Ac trans]
+34.0 +27.2 68 +53 +54 опасность
перегрева
995.2 969.5 +35.1
15 10.07 штиль 0 4000 м дым 8/4 1200 м
[Sc As op]
+32.5 +27.0 73 +51 +51 опасность
перегрева
994.2 968.4
18 10.07 штиль 0 2000 м дымка 4/0
[Ac trans]
+31.0 +27.6 82 +50 +50 опасность
перегрева
993.3 967.4
21 10.07 штиль 0 2000 м гроза без осадков 10/8 1050 м
[Cb cap As op]
+30.0 +27.3 85 +48 +48 опасность
перегрева
994.1 968.1
00 11.07 штиль 0 2000 м дымка {гроза} 10/5 1050 м
[Sc As op]
+29.0 +26.9 88 +45 +45 опасность
перегрева
993.8 967.7
03 11.07 ЮВ 1 2000 м 10/8 900 м
[Cb cap As op]
+25.0 +22.0 83 +32 +33 очень
душно
996.4 969.9 +24.8 0.0
09 11.07 ЮВ 1 4000 м дым 5/0
[Ac trans]
+33.0 +24.6 61 +46 +60 опасность
перегрева
996.6 970.8
12 11.07 штиль 0 4000 м дым 5/0
[Ac trans]
+34.0 +24.1 56 +46 +49 опасность
перегрева
996.5 970.8 +34.3
15 11.07 ЮВ 1 4000 м дым 8/4 1200 м
[Sc As op]
+31.0 +26.1 75 +46 +46 опасность
перегрева
996.5 970.5
18 11.07 штиль 0 2000 м дымка 8/4 1200 м
[Sc As op]
+30.0 +26.5 82 +46 +46 опасность
перегрева
997.2 971.1
21 11.07 штиль 0 2000 м дымка 8/4 1200 м
[Sc As op]
+28.5 +26.4 88 +43 +43 опасность
перегрева
997.2 971.0
00 12.07 штиль 0 2000 м гроза без осадков 10/8 1050 м
[Cb cap As op]
+27.5 +25.4 88 +40 +40 очень
душно
997.1 970.8
03 12.07 штиль 0 2000 м в посл. час дождь {гроза} 10/4 1200 м
[Sc As op]
+27.5 +25.4 88 +40 +41 очень
душно
998.3 972.0 +24.0 3
06 12.07 В 2 4000 м дым {гроза, дождь} 9/4 1200 м
[Sc As op]
+28.0 +23.7 77 +38 +42 очень
душно
999.7 973.4
09 12.07 ЮВ 2 4000 м дым 9/4 1200 м
[Sc As op]
+31.0 +24.6 69 +44 +47 опасность
перегрева
999.3 973.3
12 12.07 штиль 0 4000 м дым 8/3 1200 м
[Sc Ac trans]
+32.0 +25.0 67 +46 +48 опасность
перегрева
998.3 972.4 +32.5
15 12.07 ЮВ 1 4000 м дым 9/4 1200 м
[Sc As op]
+31.0 +24.6 69 +44 +44 опасность
перегрева
998.8 972.8
18 12.07 ЮВ 1 2000 м дым 8/3 1200 м
[Sc Ac trans]
+30.0 +24.3 72 +42 +42 опасность
перегрева
999.3 973.2
21 12.07 штиль 0 2000 м дым 10/4 1200 м
[Sc As op]
+28.0 +23.7 77 +38 +38 очень
душно
999.2 972.9
00 13.07 СЗ 3 2000 м дым 10/4 1200 м
[Sc As op]
+26.0 +21.5 76 +33 +33 очень
душно
998.9 972.4
03 13.07 штиль 0 4000 м в посл. час гроза {дождь} 10/5 1200 м
[Sc As op]
+23.0 +22.3 96 +31 +32 очень
душно
998.2 971.5 +22.0 19
06 13.07 штиль 0 4000 м дым {гроза, дождь} 6/3 1200 м
[Sc Ac trans]
+28.0 +25.2 85 +41 +55 опасность
перегрева
999.9 973.6
21 13.07 ЮВ 1 2000 м гроза без осадков 10/6 900 м
[Cb cap As op]
+27.0 +24.1 84 +37 +37 очень
душно
998.5 972.1
00 14.07 штиль 0 4000 м в посл. час гроза {дождь} 10/5 1200 м
[Sc As op]
+26.0 +24.6 92 +37 +37 очень
душно
997.0 970.6 1
03 14.07 СЗ 1 4000 м слаб. морось {дождь} 10/5 1200 м
[Sc As op]
+26.0 +24.6 92 +37 +38 очень
душно
998.3 971.9 +25.0 1
06 14.07 Ю 1 4000 м дым {морось} 9/3 1200 м
[Sc As op]
+28.5 +24.2 78 +40 +45 очень
душно
998.2 972.0 0.0
09 14.07 С 1 4000 м дым 9/3 1200 м
[Sc As op]
+31.0 +23.9 66 +43 +47 опасность
перегрева
998.5 972.5
12 14.07 З 1 4000 м дым 9/3 1200 м
[Sc As op]
+31.5 +23.6 63 +43 +43 опасность
перегрева
997.7 971.7 +32.8
18 14.07 штиль 0 2000 м дым 9/3 1200 м
[Sc As op]
+28.0 +23.7 77 +38 +38 очень
душно
998.7 972.4
21 14.07 штиль 0 2000 м дымка 9/3 1200 м
[Sc As op]
+26.0 +23.1 84 +35 +35 очень
душно
997.8 971.4
00 15.07 штиль 0 2000 м дымка 9/3 1200 м
[Sc As op]
+25.0 +22.0 83 +32 +32 очень
душно
996.5 970.0
03 15.07 С 1 2000 м дымка 9/3 1200 м
[Sc As op]
+26.0 +23.8 88 +36 +38 очень
душно
997.2 970.8 +24.0
06 15.07 З 1 4000 м дым 9/3 1200 м
[Sc As op]
+29.0 +24.0 74 +40 +45 очень
душно
997.2 971.0
09 15.07 Ю 1 4000 м дым 9/3 1200 м
[Sc As op]
+32.0 +25.0 67 +46 +50 опасность
перегрева
997.4 971.5
12 15.07 С 1 4000 м дым 8/3 1200 м
[Sc Ac trans]
+32.5 +25.5 67 +47 +49 опасность
перегрева
997.1 971.2 +33.5
15 15.07 С 1 4000 м дым 9/3 1200 м
[Sc As op]
+31.0 +25.4 72 +45 +45 опасность
перегрева
997.1 971.1
18 15.07 З 2 2000 м дым 9/3 1200 м
[Sc As op]
+29.0 +24.8 78 +41 +41 опасность
перегрева
998.3 972.1
21 15.07 Ю 2 2000 м дымка 9/3 1200 м
[Sc As op]
+27.0 +24.1 84 +37 +37 очень
душно
998.0 971.7
00 16.07 С 1 2000 м дымка 9/3 1200 м
[Sc As op]
+26.0 +24.6 92 +37 +37 очень
душно
998.2 971.8
03 16.07 З 1 2000 м дымка 9/3 1200 м
[Sc As op]
+26.0 +23.1 84 +35 +37 очень
душно
999.1 972.6 +24.5
06 16.07 Ю 1 2000 м в посл. час морось {дождь} 9/4 1200 м
[Sc As op]
+26.5 +24.4 88 +37 +42 очень
душно
1001.6 975.1 6
09 16.07 В 2 4000 м дым 9/4 1200 м
[Sc As op]
+28.5 +24.2 78 +40 +43 очень
душно
1001.2 974.9
12 16.07 Ю 2 4000 м дым 9/4 1200 м
[Sc As op]
+28.0 +23.7 77 +38 +39 очень
душно
1001.5 975.1 +29.8
15 16.07 штиль 0 2000 м дым {морось} 9/4 1200 м
[Sc As op]
+27.0 +24.1 84 +37 +37 очень
душно
1001.4 975.0 0.0
18 16.07 В 1 2000 м дымка 9/3 1200 м
[Sc As op]
+26.0 +23.8 88 +36 +36 очень
душно
1002.2 975.7
21 16.07 штиль 0 2000 м дымка 9/4 1200 м
[Sc As op]
+25.5 +23.3 88 +34 +34 очень
душно
1002.5 975.9
00 17.07 штиль 0 2000 м дымка 8/3 1200 м
[Sc Ac trans]
+24.5 +23.0 91 +32 +32 очень
душно
1002.0 975.3

 

Местоположение метеостанции Наровал (Пакистан): широта 32.11 долгота 74.86 высота над уровнем моря 235 м.

В архиве по умолчанию представлена погода в Наровале за последнюю неделю. Архивные данные за месяц целиком и за предыдущие месяцы, начиная с января 2011 года, Вы можете получить, выбрав интересующий диапазон дат из раскрывающегося списка и нажав кнопку "Ввод!".


*Определитесь, кто Вы:
робот инопланетянин человек

Внимание! Время в таблицах - всемирное. Для получения местного времени необходимо прибавить поправку, которая равна 5 ч.

Смотрите также архив погоды в соседних городах и на ближайших метеорологических станциях:

Погода в Сиялкоте (Пакистан) (53 км)
Погода в Амритсаре (Пенджаб, Индия) (53 км)
Погода в Джамму (Джамму и Кашмир, Индия) (62 км)
Погода в Гуджранвале (Пакистан) (69 км)
Погода в Лахор аэропорту (Пакистан) (79 км)
Погода в Лахоре (Пакистан) (80 км)
Погода в Гуджрате (Пакистан) (85 км)
Погода в Сиалкот аэропорту (Пакистан) (91 км)
Погода в Катре (Джамму и Кашмир, Индия) (98 км)
Погода в Хафизабаде (Пакистан) (114 км)

Пояснения к столбцам:

Ветер - указаны скорость ветра в м/с - средняя за 10 мин, порывы в срок и между сроками (в фигурных скобках) и направление, откуда дует ветер: С - северный, СВ - северо-восточный, В - восточный, ЮВ - юго-восточный, Ю - южный, ЮЗ - юго-западный, З - западный, СЗ - северо-западный.
Видимость - горизонтальная дальность видимости в метрах или километрах. При видимости от 1 до 10 км при отсутствии осадков обычно наблюдается дымка, при ухудшении видимости до 1 км и менее - туман. В сухую погоду видимость может ухудшаться дымом, пылью или мглою.
Явления - указаны атмосферные явления, наблюдавшиеся в срок или в последний час перед сроком; фигурными скобками обозначены явления, наблюдавшиеся между сроками (за 1-3 часа до срока); квадратными скобками обозначены град или гололедные отложения с указанием их диаметра в мм.
Облачность - указаны через наклонную черту общая и нижняя облачность в баллах и высота нижней границы облаков в метрах; квадратными скобками обозначены формы облаков: Ci - перистые, Cs - перисто-слоистые, Cc - перисто-кучевые, Ac - высококучевые, As - высокослоистые, Sc - слоисто-кучевые, Ns - слоисто-дождевые, Cu - кучевые, Cb - кучево-дождевые. Подробнее классификацию облаков см. в Атласе облаков (PDF).
T - Температура воздуха - температура, измеренная на высоте 2 м над землей.
Td - Температура точки росы - температура, при понижении до которой содержащийся в воздухе водяной пар достигнет насыщения.
f - Относительная влажность воздуха - влажноcть воздуха, измеренная на высоте 2 м над землей.
Te - Эффективная температура - температура, которую ощущает одетый по сезону человек в тени. Характеристика душности погоды. При расчете учитывается влияние влажности воздуха и скорости ветра на теплоощущения человека.
Tes - Эффективная температура на солнце - температура, которую ощущает человек, с поправкой на солнечный нагрев. Характеристика знойности погоды. Зависит от высоты солнца над горизонтом, облачности и скорости ветра. Ночью, в пасмурную погоду, а также при ветре 12 м/с и более поправка равна нулю.
P - Атмосферное давление - приведенное к уровню моря атмосферное давление.
Po - Атмосферное давление - измеренное на уровне метеостанции атмосферное давление.
Tmin - Минимальная температура - минимум температуры воздуха на высоте 2 м над землей.
Tmax - Максимальная температура - максимум температуры воздуха на высоте 2 м над землей.
R - Количество осадков - Количество выпавших осадков за период времени, мм. При наведении курсора мыши на число - период времени, за который выпало указанное количество осадков.
R24 - Количество осадков - Количество выпавших осадков за 24 часа, мм.
S - Снежный покров - Высота снежного покрова, см. При наведении курсора мыши на число - состояние снежного покрова и степень покрытия местности в баллах.